Location: Codford Saint Peter
(51.1597°N, 2.0531°W)
Time: 02:47:57
(UTC+00:00)

CENTAUR R/B - Pass Details

Date: 18 September 2020
Orbit: 755 x 1433 km, 63.4° (Epoch: 02 October)

Event Time Altitude Azimuth Distance (km) Brightness Sun altitude
Rises 21:12:14 0° 315° (NW) 4,132 7.1 -26.3°
Reaches altitude 10° 21:14:56 10° 311° (NW) 3,249 6.2 -26.6°
Maximum altitude 21:22:41 54° 237° (WSW) 1,619 3.6 -27.5°
Enters shadow 21:25:43 39° 185° (S) 1,997 3.7 -27.9°
